[[{"header":{"parameterUnit":"m.s-1","parameterCategory":1,"la1":30.2991,"la2":30.254,"lo1":-89.0895,"lo2":-89.0444,"dy":0.0017,"dx":0.0017,"nx":28,"ny":28,"refTime":"2024-08-07T03:00:00:Z","depth":0,"parameterNumber":2,"parameterNumberName":"U-component_of_WINDS"},"data":[0,0,0,0,0,0,0,0,0,0,0,0,0,0,0,0,0,0,0,0,0,0,0,0,0,0,0,0,0,0,0,0,0,0,0,0,0,0,0,0,0,0,0,0,0,0,0,0,0,0,0,0,0,0,0,0,0,0,5.7821,5.7821,0,5.7867,5.7868,5.7868,5.7805,5.7802,5.78,5.7798,5.7846,5.7849,5.7852,0,0,0,0,0,0,0,0,0,0,0,0,0,5.7679,5.7682,5.782,5.7821,5.7822,5.7867,5.7868,5.7868,5.7805,5.7802,5.7799,5.7797,5.7845,5.7849,5.7853,0,0,0,0,0,0,0,0,0,0,0,0,0,5.7734,5.7683,5.782,5.7795,5.7794,5.7867,5.7868,5.7869,5.7805,5.7802,5.7799,5.7795,5.7843,5.7848,5.7853,5.7953,0,0,5.7869,5.7871,0,0,0,0,0,0,0,0,5.7731,5.774,5.7799,5.7797,5.7795,5.7827,5.7835,5.7897,5.7806,5.7801,5.7798,5.7794,5.7842,5.7847,5.7863,5.7956,5.7958,5.7869,5.7873,5.7875,5.7876,0,0,0,0,0,0,0,5.7727,5.7737,5.7839,5.78,5.7798,5.7783,5.7787,5.7847,5.784,5.7801,5.7797,5.7803,5.7841,5.7859,5.7864,5.7958,5.7869,5.7874,5.7877,5.7879,5.8138,5.8142,0,0,0,0,0,0,5.7726,5.7734,5.7837,5.784,5.7754,5.7788,5.7793,5.782,5.7839,5.7839,5.7806,5.78,5.7852,5.7858,5.7866,5.7986,5.7875,5.7879,5.7882,5.8135,5.8139,5.8143,0,0,0,0,0,0,5.7724,5.7736,5.7836,5.7786,5.7798,5.7794,5.7825,5.7823,5.7841,5.7843,5.7842,5.7825,5.7849,5.7858,5.7933,5.7986,5.7882,5.7886,5.813,5.8136,5.8141,5.8226,0,0,0,0,0,0,5.772,5.7736,5.7773,5.7788,5.7801,5.7901,5.7829,5.7826,5.785,5.7842,5.7861,5.7861,5.7847,5.7925,5.7938,5.7992,5.789,5.8125,5.8133,5.814,5.8218,5.8234,5.8247,0,0,0,0,0,5.7715,5.7794,5.7775,5.7788,5.7847,5.7905,5.7912,5.7895,5.7854,5.7892,5.7894,5.786,5.7979,5.7934,5.7947,5.8003,5.8122,5.8131,5.8139,5.8212,5.8231,5.8247,0,0,0,0,0,0,5.7784,5.7795,5.7774,5.786,5.7882,5.7894,5.7941,5.7915,5.7949,5.794,5.7918,5.7923,5.8003,5.801,5.796,5.8103,5.8044,5.8055,5.8095,5.8113,5.8127,5.8123,5.7895,0,0,0,0,0,5.781,5.7856,5.7863,5.7938,5.795,5.7944,5.7968,5.7954,5.7975,5.7984,5.7991,5.8014,5.8057,5.8085,5.8124,5.822,5.8224,5.8265,5.828,5.8291,5.8302,5.8356,5.8375,5.8172,5.8172,5.8171,0,0,5.7863,5.7874,5.7904,5.7952,5.7967,5.8016,5.7952,5.8005,5.8042,5.7992,5.8063,5.807,5.8094,5.818,5.8218,5.8189,5.8359,5.8302,5.8312,5.8316,5.8366,5.8386,5.8403,5.8178,5.8177,5.8176,0,0,5.7984,5.7997,5.8062,5.8079,5.8104,5.81,5.8116,5.8132,5.8135,5.8206,5.8171,5.8214,5.8287,5.8307,5.8326,5.8459,5.843,5.8473,5.8548,5.8601,5.8617,5.8631,5.868,5.8697,5.8483,5.8483,5.8484,0,5.8046,5.8118,5.8099,5.8156,5.8179,5.8138,5.8205,5.8223,5.8259,5.8276,5.8243,5.8336,5.8349,5.844,5.8473,5.849,5.8509,5.847,5.8616,5.863,5.8643,5.8689,5.8707,5.8488,5.8488,5.8487,5.8487,0,5.8194,5.8245,5.8295,5.8332,5.8361,5.8423,5.8414,5.8446,5.843,5.843,5.8505,5.852,5.8562,5.8583,5.8567,5.8673,5.8655,5.8619,5.8559,5.8667,5.8711,5.8728,5.8496,5.8494,5.8492,5.8491,0,0,5.8358,5.8387,5.8405,5.8423,5.8448,5.8487,5.8549,5.8591,5.862,5.8647,5.8699,5.8763,5.8732,5.8754,5.874,5.8787,5.8894,5.8746,5.8746,5.8774,5.9014,5.9041,5.9062,5.8875,5.8878,5.8881,5.9013,0,5.848,5.8586,5.8573,5.8674,5.8722,5.8685,5.8739,5.8761,5.8764,5.8805,5.8808,5.8855,5.8809,5.8822,5.8867,5.8871,5.8942,5.8862,5.8924,5.8926,5.8919,5.9084,5.9112,5.9235,5.9029,5.9032,5.9034,0,5.8636,5.8671,5.8778,5.8799,5.8818,5.8866,5.8906,5.8946,5.8971,5.897,5.8997,5.8976,5.9039,5.8979,5.9067,5.9013,5.9038,5.9045,5.9049,5.9054,5.8987,5.9094,5.9274,5.9293,5.906,5.9058,5.9056,0,5.8747,5.882,5.8894,5.891,5.8936,5.8971,5.8984,5.9006,5.9034,5.9069,5.9087,5.9128,5.9151,5.9185,5.9177,5.9133,5.9267,5.9206,5.9269,5.927,5.9298,5.9296,5.9485,5.9314,5.9314,5.9313,5.9313,0,5.8885,5.8952,5.8944,5.899,5.9065,5.905,5.9125,5.9133,5.9154,5.9201,5.9172,5.9217,5.9203,5.9249,5.9243,5.9318,5.9328,5.933,5.9327,5.9333,5.9333,5.9348,5.934,5.9318,5.9317,5.9316,5.9315,0,5.9021,5.9018,5.9097,5.9116,5.9123,5.9177,5.9194,5.9238,5.9239,5.93,5.9313,5.9316,5.9368,5.9363,5.9421,5.9418,5.9511,5.9498,5.9502,5.9499,5.9563,5.9558,5.9769,5.9797,5.9607,5.9609,5.9611,0,5.9109,5.916,5.9186,5.9216,5.9231,5.928,5.9308,5.9296,5.9327,5.9363,5.9403,5.9452,5.9491,5.9577,5.9584,5.9629,5.9618,5.9689,5.9624,5.9629,5.962,5.9617,5.9623,5.9701,5.9703,5.9705,5.9707,0,5.9267,5.9264,5.9306,5.9349,5.9384,5.9417,5.9447,5.9474,5.9465,5.9502,5.9555,5.9586,5.9647,5.9697,5.9741,5.9754,5.973,5.9727,5.9744,5.975,5.9751,5.9753,5.9537,5.9722,5.9721,5.9719,5.9719,5.9718,5.9382,5.9427,5.9453,5.9501,5.9523,5.9553,5.9596,5.9604,5.9648,5.9697,5.9687,5.9748,5.9775,5.9831,5.985,5.9898,5.9872,5.9897,5.9903,5.991,5.9918,5.9744,5.9906,5.9905,5.9905,5.9905,5.9904,0,5.9539,5.9555,5.96,5.9644,5.9683,5.9657,5.969,5.9725,5.9779,5.9806,5.9846,5.9909,5.9959,5.9971,6.0019,6.0055,6.0046,6.0069,6.0066,6.007,5.9937,5.9918,6.0076,6.0076,6.0076,6.0076,6.0076,6.0076,5.9625,5.97,5.9701,5.9788,5.9803,5.9862,5.9884,5.9912,5.9934,6.0005,6.0047,6.0055,6.0077,6.0127,6.0172,6.0175,6.0194,6.0222,6.022,6.0096,6.0079,6.0062,6.0044,6.0226,6.0226,6.0349,6.035,6.0351]},{"header":{"parameterUnit":"m.s-1","parameterCategory":1,"la1":30.2991,"la2":30.254,"lo1":-89.0895,"lo2":-89.0444,"dy":0.0017,"dx":0.0017,"nx":28,"ny":28,"refTime":"2024-08-07T03:00:00:Z","depth":0,"parameterNumber":3,"parameterNumberName":"V-component_of_WINDS"},"data":[0,0,0,0,0,0,0,0,0,0,0,0,0,0,0,0,0,0,0,0,0,0,0,0,0,0,0,0,0,0,0,0,0,0,0,0,0,0,0,0,0,0,0,0,0,0,0,0,0,0,0,0,0,0,0,0,0,0,-2.1687,-2.1686,0,-2.1624,-2.1623,-2.1623,-2.1635,-2.1636,-2.1638,-2.1639,-2.1569,-2.1566,-2.1564,0,0,0,0,0,0,0,0,0,0,0,0,0,-2.1814,-2.1812,-2.1687,-2.1686,-2.1685,-2.1624,-2.1623,-2.1622,-2.1635,-2.1637,-2.1638,-2.1639,-2.157,-2.1567,-2.1563,0,0,0,0,0,0,0,0,0,0,0,0,0,-2.1756,-2.1811,-2.1687,-2.1684,-2.1684,-2.1624,-2.1623,-2.1622,-2.1635,-2.1637,-2.1638,-2.164,-2.1571,-2.1567,-2.1563,-2.1501,0,0,-2.1549,-2.1547,0,0,0,0,0,0,0,0,-2.1759,-2.1751,-2.1686,-2.1684,-2.1683,-2.1639,-2.1643,-2.1581,-2.1634,-2.1653,-2.1639,-2.1641,-2.1591,-2.1585,-2.1569,-2.1498,-2.1495,-2.1549,-2.1546,-2.1544,-2.1543,0,0,0,0,0,0,0,-2.1763,-2.1754,-2.1662,-2.1685,-2.1683,-2.1685,-2.1679,-2.1631,-2.1613,-2.1652,-2.1652,-2.1645,-2.1591,-2.1573,-2.1568,-2.1494,-2.1549,-2.1545,-2.1542,-2.1541,-2.1369,-2.1367,0,0,0,0,0,0,-2.1769,-2.1757,-2.1664,-2.166,-2.1726,-2.1681,-2.1674,-2.1652,-2.1613,-2.1609,-2.1644,-2.1646,-2.158,-2.1573,-2.1565,-2.1491,-2.1544,-2.154,-2.1538,-2.1371,-2.1368,-2.1366,0,0,0,0,0,0,-2.1771,-2.176,-2.1666,-2.1709,-2.1697,-2.1677,-2.1652,-2.1649,-2.1632,-2.1607,-2.1604,-2.163,-2.1581,-2.1571,-2.1517,-2.1489,-2.1538,-2.1534,-2.1373,-2.137,-2.1367,-2.1341,0,0,0,0,0,0,-2.1775,-2.1761,-2.1738,-2.1708,-2.1695,-2.1621,-2.165,-2.1647,-2.1625,-2.1628,-2.1593,-2.1589,-2.1582,-2.1524,-2.1513,-2.1483,-2.1531,-2.1375,-2.1372,-2.1368,-2.1344,-2.1338,-2.1332,0,0,0,0,0,-2.1779,-2.1732,-2.1737,-2.1725,-2.1666,-2.1619,-2.1611,-2.1605,-2.1623,-2.1599,-2.1584,-2.159,-2.1494,-2.1518,-2.1506,-2.1475,-2.1377,-2.1373,-2.1368,-2.1347,-2.1339,-2.1332,0,0,0,0,0,0,-2.1757,-2.1728,-2.1733,-2.1675,-2.1649,-2.1621,-2.1591,-2.1596,-2.1564,-2.1567,-2.1559,-2.1551,-2.1496,-2.148,-2.1508,-2.1413,-2.1438,-2.1431,-2.1426,-2.1418,-2.1412,-2.1417,-2.1527,0,0,0,0,0,-2.1745,-2.1711,-2.1687,-2.1638,-2.1625,-2.161,-2.159,-2.1587,-2.156,-2.1549,-2.1529,-2.1501,-2.1464,-2.144,-2.1405,-2.1342,-2.1335,-2.1315,-2.1309,-2.1304,-2.1297,-2.1264,-2.1255,-2.1352,-2.1352,-2.1352,0,0,-2.1721,-2.1701,-2.1679,-2.1633,-2.1613,-2.1577,-2.1601,-2.1561,-2.1534,-2.1542,-2.1491,-2.1475,-2.1443,-2.1385,-2.1358,-2.137,-2.1269,-2.1298,-2.1294,-2.1291,-2.1258,-2.1249,-2.1241,-2.1349,-2.1349,-2.135,0,0,-2.1657,-2.1639,-2.1597,-2.1577,-2.1547,-2.1538,-2.1528,-2.1499,-2.149,-2.1438,-2.1444,-2.141,-2.1347,-2.1325,-2.1305,-2.1235,-2.124,-2.1224,-2.1191,-2.1158,-2.115,-2.1143,-2.1119,-2.111,-2.1218,-2.1218,-2.1218,0,-2.163,-2.1577,-2.1573,-2.1534,-2.1513,-2.1521,-2.1478,-2.1458,-2.1418,-2.1403,-2.1417,-2.1339,-2.1318,-2.1255,-2.1238,-2.1222,-2.121,-2.1227,-2.1152,-2.1145,-2.1139,-2.1115,-2.1106,-2.1216,-2.1216,-2.1216,-2.1216,0,-2.1545,-2.1508,-2.1477,-2.1441,-2.1417,-2.1375,-2.1364,-2.134,-2.134,-2.1329,-2.1277,-2.1252,-2.1213,-2.1197,-2.1196,-2.1134,-2.1143,-2.1154,-2.1179,-2.1128,-2.1105,-2.1096,-2.1213,-2.1214,-2.1214,-2.1215,0,0,-2.1465,-2.1428,-2.1417,-2.1401,-2.1369,-2.134,-2.1299,-2.1262,-2.1242,-2.1214,-2.1179,-2.1126,-2.1138,-2.1115,-2.1111,-2.1083,-2.1029,-2.1098,-2.1097,-2.1086,-2.096,-2.0952,-2.0941,-2.1033,-2.1031,-2.103,-2.0963,0,-2.1399,-2.1329,-2.1325,-2.126,-2.1226,-2.1234,-2.1198,-2.1174,-2.1163,-2.1131,-2.1118,-2.1081,-2.1099,-2.1085,-2.1058,-2.1042,-2.1004,-2.1047,-2.1,-2.0998,-2.1008,-2.093,-2.092,-2.0858,-2.0954,-2.0953,-2.0952,0,-2.1313,-2.1285,-2.1217,-2.1192,-2.1178,-2.1146,-2.1112,-2.1082,-2.1055,-2.1049,-2.1025,-2.1026,-2.0983,-2.1009,-2.095,-2.0979,-2.0959,-2.0949,-2.0946,-2.0942,-2.0972,-2.0923,-2.0838,-2.0829,-2.0938,-2.0939,-2.094,0,-2.1262,-2.1207,-2.116,-2.1146,-2.1115,-2.1092,-2.1078,-2.1053,-2.1032,-2.1002,-2.0988,-2.0953,-2.0933,-2.0906,-2.0897,-2.0917,-2.0838,-2.0863,-2.0831,-2.0831,-2.0813,-2.0814,-2.0725,-2.0801,-2.0801,-2.0801,-2.0801,0,-2.1189,-2.1148,-2.1137,-2.1108,-2.1061,-2.1057,-2.1011,-2.0998,-2.0976,-2.0944,-2.0947,-2.0917,-2.0907,-2.0874,-2.0866,-2.0819,-2.0809,-2.0803,-2.0801,-2.0803,-2.0803,-2.0789,-2.0794,-2.0798,-2.0799,-2.0799,-2.08,0,-2.1124,-2.1115,-2.1065,-2.104,-2.1033,-2.1,-2.0978,-2.095,-2.094,-2.0899,-2.089,-2.0873,-2.0835,-2.0824,-2.0777,-2.0772,-2.0716,-2.0718,-2.0726,-2.0726,-2.0694,-2.0697,-2.0592,-2.0578,-2.0663,-2.0662,-2.0662,0,-2.1078,-2.1047,-2.102,-2.1,-2.0985,-2.0952,-2.0931,-2.0925,-2.0903,-2.0871,-2.0846,-2.0809,-2.0779,-2.0718,-2.0701,-2.0666,-2.0667,-2.0633,-2.0662,-2.0664,-2.0667,-2.0669,-2.0666,-2.0627,-2.0626,-2.0626,-2.0625,0,-2.0998,-2.0996,-2.0966,-2.0935,-2.091,-2.0885,-2.086,-2.0843,-2.0834,-2.0808,-2.0771,-2.0748,-2.0702,-2.0665,-2.0629,-2.0613,-2.0617,-2.0616,-2.0607,-2.0608,-2.0614,-2.0611,-2.0711,-2.0619,-2.0619,-2.062,-2.062,-2.062,-2.0942,-2.0915,-2.0892,-2.0859,-2.084,-2.0818,-2.079,-2.0778,-2.0747,-2.071,-2.0708,-2.0668,-2.0642,-2.0595,-2.0577,-2.0545,-2.0554,-2.0541,-2.0537,-2.0534,-2.0532,-2.0619,-2.0538,-2.0538,-2.0538,-2.0538,-2.0538,0,-2.0862,-2.0849,-2.0818,-2.0785,-2.0759,-2.0767,-2.0741,-2.0718,-2.0683,-2.0659,-2.063,-2.0587,-2.0552,-2.0533,-2.0497,-2.0475,-2.0476,-2.0466,-2.0467,-2.0464,-2.0525,-2.0537,-2.0466,-2.0466,-2.0466,-2.0466,-2.0466,-2.0466,-2.0818,-2.0773,-2.0768,-2.0714,-2.07,-2.0661,-2.0645,-2.0624,-2.0606,-2.0558,-2.053,-2.0518,-2.0496,-2.046,-2.0427,-2.0422,-2.0409,-2.0398,-2.0394,-2.0452,-2.0459,-2.0466,-2.0477,-2.0395,-2.0395,-2.0336,-2.0335,-2.0335]}]]